Total_Precipitation_Accumulation
0.06 0.15 0.21 0.23 0.21 0.18 0.14 0.13 0.25 0.28 0.37 0.47 0.63 0.60 0.59 0.56 0.49 0.49 0.57 0.56 0.53 0.52 0.56 0.56 0.61 0.61 0.60 0.62 0.66 0.84 1.23 1.42 1.38 1.34 1.35 1.31 1.31 1.40 1.47 1.52 1.57 1.78 1.95 2.05
0.10 0.14 0.15 0.16 0.19 0.18 0.13 0.11 0.10 0.16 0.30 0.35 0.56 0.69 0.67 0.65 0.62 0.60 0.59 0.55 0.52 0.46 0.55 0.62 0.67 0.69 0.68 0.70 0.73 0.86 1.13 1.35 1.34 1.31 1.28 1.21 1.26 1.34 1.49 1.60 1.76 1.93 1.95 1.93
0.15 0.19 0.17 0.24 0.20 0.17 0.15 0.14 0.15 0.23 0.37 0.36 0.41 0.57 0.68 0.67 0.61 0.57 0.60 0.53 0.53 0.56 0.66 0.84 0.76 0.77 0.83 0.78 0.79 0.92 1.15 1.32 1.38 1.33 1.33 1.30 1.27 1.42 1.62 1.79 1.95 2.07 2.04 1.97
0.21 0.25 0.36 0.28 0.21 0.22 0.25 0.28 0.29 0.32 0.36 0.39 0.50 0.57 0.70 0.86 0.72 0.56 0.60 0.62 0.70 0.67 0.74 0.82 0.80 0.83 0.87 0.88 0.90 1.01 1.19 1.38 1.44 1.38 1.43 1.51 1.50 1.59 1.83 2.05 2.19 2.22 2.18 2.08
0.31 0.34 0.41 0.38 0.30 0.34 0.38 0.43 0.45 0.49 0.43 0.47 0.53 0.63 0.77 0.73 0.71 0.74 0.73 0.72 0.79 0.86 0.89 0.96 0.97 0.92 0.94 1.06 1.08 1.16 1.24 1.41 1.51 1.55 1.62 1.64 1.68 1.86 2.09 2.27 2.31 2.30 2.33 2.23
0.44 0.52 0.59 0.58 0.43 0.37 0.45 0.77 0.61 0.63 0.62 0.55 0.57 0.83 0.94 0.78 0.71 0.71 0.81 0.89 0.87 0.93 0.97 1.01 1.04 1.09 1.12 1.22 1.34 1.46 1.55 1.64 1.83 2.02 2.19 2.24 2.26 2.31 2.35 2.45 2.41 2.41 2.35 2.32
0.65 0.76 0.71 0.56 0.50 0.44 0.84 1.17 0.87 0.84 0.82 0.72 0.83 0.94 0.93 0.80 0.73 0.68 0.71 0.85 0.92 0.91 1.00 1.09 1.11 1.22 1.40 1.48 1.59 1.73 1.88 1.96 2.15 2.45 2.62 2.62 2.61 2.53 2.45 2.47 2.50 2.48 2.36 2.28
0.89 1.11 1.17 0.65 0.61 0.93 1.18 1.01 1.03 1.04 1.01 0.94 0.91 0.97 0.97 0.93 0.77 0.70 0.70 0.78 0.89 0.93 0.98 1.16 1.39 1.58 1.83 1.94 1.92 2.03 2.17 2.31 2.49 2.70 2.64 2.58 2.76 2.68 2.64 2.70 2.67 2.53 2.39 2.27
1.14 1.34 1.15 0.80 0.93 1.10 1.09 1.06 1.10 1.07 1.01 0.91 0.86 1.01 0.96 0.87 0.84 0.70 0.68 0.75 0.84 0.92 1.04 1.21 1.48 1.86 2.11 2.17 2.27 2.31 2.39 2.53 2.61 2.67 2.81 2.95 3.02 2.92 2.81 2.76 2.67 2.46 2.32 2.18
1.38 1.46 1.23 1.07 1.06 1.03 1.06 1.08 1.04 0.97 0.92 0.92 0.87 0.88 0.88 0.81 0.78 0.73 0.72 0.80 0.84 0.93 1.10 1.35 1.58 1.89 2.06 2.12 2.16 2.20 2.24 2.25 2.34 2.48 2.61 2.71 2.95 3.01 2.91 2.76 2.65 2.55 2.43 2.25
1.75 1.83 1.69 1.56 1.33 1.16 1.14 1.10 1.13 1.09 1.00 0.97 0.93 0.87 0.80 0.77 0.75 0.74 0.74 0.83 0.90 0.99 1.11 1.25 1.45 1.66 1.77 1.92 2.01 2.16 2.21 2.15 2.11 2.14 2.28 2.40 2.52 2.61 2.57 2.54 2.36 2.24 2.11 2.01
2.03 1.76 1.70 1.83 1.59 1.38 1.32 1.29 1.32 1.34 1.31 1.17 1.07 0.99 0.90 0.85 0.76 0.73 0.72 0.82 0.91 1.02 1.15 1.25 1.41 1.62 1.71 1.85 1.93 2.01 2.04 1.97 1.97 1.96 2.04 2.10 2.11 2.05 1.88 1.79 1.64 1.49 1.42 1.36
1.70 1.60 1.57 1.69 1.59 1.54 1.61 1.65 1.64 1.57 1.40 1.16 1.04 0.98 0.89 0.80 0.75 0.75 0.81 0.93 1.06 1.11 1.21 1.33 1.43 1.57 1.75 1.90 2.02 2.07 1.96 1.82 1.71 1.68 1.75 1.76 1.82 1.94 2.00 1.76 1.55 1.36 1.22 1.09
1.55 1.72 1.92 1.95 1.90 1.75 1.75 1.83 1.77 1.52 1.39 1.27 1.12 1.04 0.95 0.84 0.78 0.77 0.80 0.92 1.04 1.11 1.13 1.21 1.39 1.50 1.66 1.84 1.93 1.99 1.90 1.80 1.69 1.66 1.71 1.75 1.79 1.87 2.01 2.00 1.72 1.36 1.20 1.09
1.68 1.69 1.88 2.01 1.95 1.94 1.89 1.88 1.90 1.73 1.50 1.44 1.36 1.23 1.13 1.09 1.05 0.98 0.95 1.00 1.12 1.21 1.24 1.25 1.36 1.43 1.59 1.82 1.85 1.81 1.75 1.69 1.64 1.67 1.68 1.70 1.81 1.85 1.85 1.88 1.77 1.54 1.29 1.07
2.01 1.83 1.86 1.96 1.91 1.85 1.81 1.76 1.74 1.69 1.54 1.42 1.34 1.28 1.19 1.15 1.16 1.12 1.13 1.24 1.43 1.44 1.40 1.41 1.41 1.44 1.59 1.80 1.84 1.76 1.65 1.55 1.45 1.48 1.49 1.45 1.49 1.56 1.57 1.62 1.58 1.47 1.32 1.05
2.00 2.05 1.97 1.83 1.75 1.71 1.65 1.53 1.48 1.45 1.52 1.49 1.31 1.18 1.12 1.03 1.05 1.15 1.27 1.36 1.45 1.42 1.38 1.41 1.37 1.33 1.47 1.68 1.81 1.78 1.61 1.39 1.15 1.06 1.14 1.25 1.35 1.41 1.41 1.40 1.41 1.37 1.19 0.92
1.70 1.78 1.73 1.60 1.53 1.49 1.47 1.38 1.29 1.22 1.27 1.29 1.17 1.10 1.09 1.11 1.20 1.32 1.47 1.50 1.47 1.38 1.29 1.23 1.17 1.20 1.35 1.43 1.52 1.59 1.50 1.36 1.17 1.04 1.07 1.13 1.21 1.33 1.34 1.28 1.24 1.19 1.07 0.87
1.47 1.42 1.45 1.40 1.32 1.25 1.20 1.16 1.18 1.14 1.12 1.16 1.12 1.09 1.14 1.23 1.37 1.47 1.52 1.66 1.70 1.53 1.32 1.17 1.13 1.11 1.22 1.24 1.30 1.42 1.40 1.34 1.23 1.14 1.17 1.15 1.18 1.25 1.21 1.15 1.11 1.06 0.98 0.87
1.44 1.34 1.38 1.34 1.26 1.19 1.11 1.05 1.03 1.00 1.06 1.13 1.16 1.21 1.32 1.39 1.53 1.67 1.72 1.75 1.77 1.66 1.37 1.16 1.06 1.03 1.07 1.12 1.18 1.20 1.24 1.21 1.10 1.05 1.09 1.13 1.10 1.10 1.05 1.00 0.95 0.91 0.86 0.83
1.42 1.41 1.39 1.39 1.31 1.17 1.10 1.05 1.01 1.00 1.05 1.15 1.25 1.33 1.47 1.56 1.64 1.79 1.98 1.96 1.74 1.59 1.37 1.16 1.00 0.95 0.95 1.04 1.11 1.11 1.16 1.18 1.10 1.04 1.04 1.05 1.04 1.02 0.97 0.93 0.89 0.82 0.79 0.76
1.24 1.30 1.27 1.24 1.19 1.12 1.07 1.07 1.05 1.06 1.12 1.20 1.26 1.35 1.48 1.55 1.65 1.76 1.79 1.92 1.79 1.65 1.34 1.09 0.95 0.92 0.92 0.99 0.96 1.02 1.04 1.06 1.02 0.97 0.93 0.94 0.94 0.98 0.96 0.88 0.82 0.76 0.75 0.75
1.12 1.14 1.15 1.15 1.14 1.14 1.07 1.05 1.09 1.14 1.21 1.29 1.37 1.45 1.55 1.53 1.62 1.94 1.99 1.78 1.65 1.53 1.21 1.05 1.02 0.95 0.92 0.88 0.90 0.95 0.95 0.97 0.96 0.87 0.81 0.82 0.86 0.93 0.97 0.93 0.89 0.81 0.77 0.74
1.16 1.07 1.06 1.05 1.02 1.08 1.07 1.04 1.07 1.18 1.21 1.23 1.26 1.34 1.50 1.52 1.46 1.54 1.77 1.86 1.69 1.48 1.18 1.09 1.02 0.91 0.85 0.84 0.98 1.02 0.99 0.96 0.93 0.81 0.72 0.70 0.76 0.87 0.93 0.95 0.94 0.89 0.84 0.81
1.18 1.07 0.95 0.95 1.01 1.10 1.15 1.17 1.23 1.26 1.27 1.22 1.13 1.17 1.35 1.47 1.52 1.45 1.43 1.49 1.54 1.36 1.18 1.10 1.02 0.97 0.82 0.79 0.95 1.06 1.05 1.04 0.95 0.83 0.76 0.79 0.84 0.89 0.89 0.88 0.85 0.82 0.84 0.85
1.20 1.10 1.05 0.97 0.96 1.05 1.17 1.32 1.48 1.48 1.45 1.45 1.29 1.13 1.19 1.23 1.19 1.19 1.24 1.28 1.29 1.28 1.17 1.12 1.03 0.97 0.89 0.86 0.92 1.04 1.13 1.16 1.03 0.91 0.90 0.95 0.94 0.91 0.90 0.86 0.81 0.80 0.77 0.74
1.10 1.07 1.06 1.00 1.01 1.05 1.16 1.31 1.51 1.57 1.53 1.56 1.42 1.20 1.13 1.10 1.01 1.01 1.07 1.16 1.19 1.20 1.19 1.14 1.04 0.95 0.89 0.88 0.90 0.95 1.04 1.10 1.06 1.01 0.96 0.97 1.00 1.00 0.94 0.88 0.85 0.81 0.77 0.72